Weather History for Nebraska City, NE

Change the Weather History Date:

Thursday, April 10, 2014

  Actual Average (KSDA) Record (KSDA)
Temperature  
Mean Temperature 60 °F -  
Max Temperature 66 °F 63 °F 86 °F (1981)
Min Temperature 52 °F 36 °F 20 °F (1989)
Degree Days  
Heating Degree Days 6    
Growing Degree Days 10 (Base 50)    
Moisture  
Dew Point 27 °F    
Average Humidity 29    
Maximum Humidity 50    
Minimum Humidity 16    
Precipitation  
Precipitation 0.00 in - - ()
Sea Level Pressure  
Sea Level Pressure 29.86 in    
Wind  
Wind Speed 15 mph (North)    
Max Wind Speed 37 mph    
Max Gust Speed 47 mph    
Visibility 10 miles    
Events      
Averages and records for this station are not official NWS values.
T = Trace of Precipitation, MM = Missing Value Source: NWS Daily Summary

Daily Weather History Graph

Daily Weather History Graph

Search for Another Location

Airport:

Trip Planner

Search our weather history database for the weather conditions in past years. The results will help you decide how hot, cold, wet, or windy it might be!

Date:

Astronomy

Apr. 10, 2014 Rise Set
Actual Time 6:52 AM CDT 7:57 PM CDT
Civil Twilight 6:24 AM CDT 8:25 PM CDT
Nautical Twilight 5:51 AM CDT 8:59 PM CDT
Astronomical Twilight 5:16 AM CDT 9:34 PM CDT
Moon 3:41 PM CDT (4/10) 4:17 AM CDT (4/10)
Length of Visible Light 14h 01m
Length of Day
13h 05m
Waxing Gibbous, 80% of the Moon is Illuminated
Apr 10
Waxing Gibbous
Apr 15
Full
Apr 22
Last Quarter
Apr 29
New
May 6
First Quarter

Hourly Weather History & Observations

Time (CDT) Temp. Dew Point Humidity Pressure Visibility Wind Dir Wind Speed Gust Speed Precip Events Conditions
12:15 AM 66.2 °F 37.4 °F 35% 29.63 in 10.0 mi SSW 20.7 mph 25.3 mph N/A   Scattered Clouds
12:35 AM 67.3 °F 37.4 °F 33% 29.64 in 10.0 mi SSW 20.7 mph - N/A   Scattered Clouds
12:55 AM 66.7 °F 37.0 °F 33% 29.62 in 10.0 mi SSW 15.0 mph - N/A   Clear
1:15 AM 64.6 °F 37.0 °F 36% 29.62 in 10.0 mi SSW 15.0 mph - N/A   Clear
1:35 AM 62.8 °F 37.4 °F 39% 29.62 in 10.0 mi SSW 11.5 mph - N/A   Clear
1:55 AM 62.2 °F 37.6 °F 40% 29.61 in 10.0 mi SW 13.8 mph - N/A   Clear
2:15 AM 63.0 °F 37.4 °F 39% 29.61 in 10.0 mi SW 12.7 mph - N/A   Clear
2:35 AM 63.0 °F 37.8 °F 39% 29.61 in 10.0 mi SW 15.0 mph - N/A   Clear
2:55 AM 63.7 °F 37.4 °F 38% 29.61 in 10.0 mi SW 11.5 mph - N/A   Clear
3:15 AM 64.8 °F 37.6 °F 37% 29.63 in 10.0 mi West 9.2 mph - N/A   Clear
3:35 AM 65.3 °F 37.8 °F 36% 29.67 in 10.0 mi West 11.5 mph - N/A   Scattered Clouds
3:55 AM 65.3 °F 37.4 °F 36% 29.66 in 10.0 mi West 16.1 mph - N/A   Scattered Clouds
4:15 AM 64.4 °F 36.5 °F 36% 29.66 in 10.0 mi West 18.4 mph 24.2 mph N/A   Clear
4:35 AM 63.3 °F 33.8 °F 33% 29.65 in 10.0 mi NW 21.9 mph 26.5 mph N/A   Clear
4:55 AM 61.3 °F 32.9 °F 34% 29.65 in 10.0 mi North 23.0 mph 36.8 mph N/A   Clear
5:15 AM 61.2 °F 33.8 °F 36% 29.68 in 10.0 mi North 33.4 mph 40.3 mph N/A   Clear
5:35 AM 60.4 °F 35.4 °F 39% 29.72 in 10.0 mi NNE 36.8 mph 47.2 mph N/A   Clear
5:55 AM 59.2 °F 35.4 °F 41% 29.74 in 10.0 mi NNE 28.8 mph 35.7 mph N/A   Clear
6:15 AM 58.3 °F 35.6 °F 43% 29.75 in 10.0 mi NNE 25.3 mph 36.8 mph N/A   Clear
6:35 AM 57.4 °F 35.2 °F 43% 29.76 in 10.0 mi NNE 23.0 mph 34.5 mph N/A   Clear
6:55 AM 56.8 °F 35.1 °F 44% 29.79 in 10.0 mi NNE 24.2 mph 31.1 mph N/A   Clear
7:35 AM 54.9 °F 36.0 °F 49% 29.83 in 10.0 mi NNE 13.8 mph - N/A   Clear
7:55 AM 54.9 °F 36.5 °F 50% 29.84 in 10.0 mi NNE 12.7 mph - N/A   Clear
8:15 AM 55.8 °F 36.9 °F 49% 29.87 in 10.0 mi NNE 12.7 mph - N/A   Clear
8:35 AM 55.8 °F 36.7 °F 49% 29.87 in 10.0 mi NNE 15.0 mph - N/A   Clear
8:55 AM 55.6 °F 35.6 °F 47% 29.87 in 10.0 mi NNE 17.3 mph 20.7 mph N/A   Clear
9:15 AM 56.5 °F 34.2 °F 43% 29.88 in 10.0 mi NNE 17.3 mph - N/A   Clear
9:35 AM 58.1 °F 33.3 °F 39% 29.88 in 10.0 mi NNE 17.3 mph - N/A   Clear
9:55 AM 58.3 °F 31.6 °F 36% 29.89 in 10.0 mi NNE 18.4 mph 29.9 mph N/A   Clear
10:15 AM 57.9 °F 31.1 °F 36% 29.89 in 10.0 mi NNE 23.0 mph 28.8 mph N/A   Clear
10:35 AM 57.2 °F 30.9 °F 37% 29.90 in 10.0 mi NE 18.4 mph 28.8 mph N/A   Clear
10:55 AM 57.7 °F 30.2 °F 35% 29.91 in 10.0 mi NNE 21.9 mph - N/A   Clear
11:15 AM 57.7 °F 29.1 °F 34% 29.94 in 10.0 mi NNE 15.0 mph 21.9 mph N/A   Clear
11:35 AM 58.5 °F 28.8 °F 32% 29.93 in 10.0 mi NNE 16.1 mph 21.9 mph N/A   Clear
11:55 AM 59.5 °F 28.8 °F 31% 29.94 in 10.0 mi NNE 19.6 mph 23.0 mph N/A   Clear
12:15 PM 60.1 °F 26.6 °F 28% 29.95 in 10.0 mi NNE 18.4 mph - N/A   Clear
12:35 PM 61.0 °F 26.8 °F 27% 29.96 in 10.0 mi NNE 12.7 mph 21.9 mph N/A   Clear
12:55 PM 60.6 °F 25.3 °F 26% 29.96 in 10.0 mi NNE 17.3 mph 24.2 mph N/A   Clear
1:15 PM 60.8 °F 24.8 °F 25% 29.96 in 10.0 mi North 12.7 mph - N/A   Clear
1:35 PM 62.1 °F 23.4 °F 23% 29.96 in 10.0 mi NNE 10.4 mph 19.6 mph N/A   Clear
1:55 PM 62.4 °F 23.2 °F 22% 29.96 in 10.0 mi NE 10.4 mph - N/A   Clear
2:15 PM 62.8 °F 20.5 °F 20% 29.95 in 10.0 mi NNE 12.7 mph - N/A   Clear
2:35 PM 63.0 °F 19.0 °F 18% 29.95 in 10.0 mi North 15.0 mph - N/A   Clear
2:55 PM 64.6 °F 18.1 °F 17% 29.95 in 10.0 mi NNE 12.7 mph 20.7 mph N/A   Clear
3:15 PM 66.0 °F 18.1 °F 16% 29.96 in 10.0 mi NE 13.8 mph 19.6 mph N/A   Clear
3:35 PM 65.7 °F 18.1 °F 16% 29.95 in 10.0 mi North 9.2 mph 16.1 mph N/A   Clear
3:55 PM 66.2 °F 19.4 °F 17% 29.94 in 10.0 mi NNE 12.7 mph - N/A   Clear
4:15 PM 65.5 °F 20.3 °F 18% 29.95 in 10.0 mi NE 4.6 mph - N/A   Clear
4:35 PM 66.2 °F 19.4 °F 17% 29.94 in 10.0 mi NE 9.2 mph - N/A   Clear
4:55 PM 66.0 °F 18.7 °F 16% 29.94 in 10.0 mi NE 9.2 mph - N/A   Clear
5:15 PM 65.8 °F 18.1 °F 16% 29.95 in 10.0 mi NNW 8.1 mph - N/A   Clear
5:55 PM 65.7 °F 18.9 °F 17% 29.96 in 10.0 mi NW 3.5 mph - N/A   Clear
6:15 PM 66.0 °F 18.7 °F 16% 29.95 in 10.0 mi NNE 6.9 mph - N/A   Clear
6:35 PM 65.1 °F 18.3 °F 17% 29.96 in 10.0 mi NE 6.9 mph - N/A   Clear
6:55 PM 64.8 °F 16.9 °F 16% 29.96 in 10.0 mi North 3.5 mph - N/A   Clear
7:15 PM 63.5 °F 17.1 °F 17% 29.96 in 10.0 mi Calm Calm - N/A   Clear
7:35 PM 62.1 °F 16.0 °F 17% 29.96 in 10.0 mi North 3.5 mph - N/A   Clear
7:55 PM 61.7 °F 15.6 °F 17% 29.97 in 10.0 mi Calm Calm - N/A   Clear
8:15 PM 61.3 °F 15.3 °F 17% 29.97 in 10.0 mi Calm Calm - N/A   Clear
8:35 PM 60.3 °F 15.3 °F 17% 29.98 in 10.0 mi Calm Calm - N/A   Clear
8:55 PM 56.5 °F 16.9 °F 21% 29.99 in 10.0 mi Calm Calm - N/A   Clear
9:15 PM 55.9 °F 16.3 °F 21% 29.99 in 10.0 mi Calm Calm - N/A   Clear
9:55 PM 59.2 °F 15.3 °F 18% 30.01 in 10.0 mi Calm Calm - N/A   Clear
10:15 PM 59.0 °F 14.5 °F 18% 30.01 in 10.0 mi Calm Calm - N/A   Clear
10:35 PM 59.2 °F 14.5 °F 17% 30.01 in 10.0 mi Calm Calm - N/A   Clear
10:55 PM 57.9 °F 14.2 °F 18% 30.00 in 10.0 mi South 3.5 mph - N/A   Clear
11:15 PM 52.5 °F 16.7 °F 24% 30.01 in 10.0 mi South 4.6 mph - N/A   Clear
11:35 PM 54.1 °F 15.6 °F 22% 30.01 in 10.0 mi SSW 3.5 mph - N/A   Clear
11:55 PM 54.5 °F 16.3 °F 22% 30.01 in 10.0 mi SSW 4.6 mph - N/A   Clear